EDV4676 KLGA-KCHS

Flight info

Callsign EDV4676
Flight time 1h 28m
Altitude 36000
Route WHITE Q409 CRPLR DFENC Q109 JOHAR AMYLU AMYLU3
Aircraft CRJ9/M-SDFGIRWY/S

Departure

Time 2026-04-24 01:06
Airport LaGuardia Airport (KLGA)

Arrival

Time 2026-04-24 02:34
Airport Charleston International Airport (KCHS)
Time Latitude Longitude Altitude Speed Heading
2026-04-24 00:29 40.76783 -73.86005 18 ft 0 kts 135°
2026-04-24 00:44 40.76784 -73.86006 18 ft 2 kts 135°
2026-04-24 00:45 40.76801 -73.86031 19 ft 4 kts 121°
2026-04-24 00:45 40.76804 -73.86060 21 ft 4 kts 72°
2026-04-24 00:45 40.76811 -73.86041 20 ft 4 kts 54°
2026-04-24 00:45 40.76830 -73.86017 18 ft 3 kts 42°
2026-04-24 00:46 40.76846 -73.85997 18 ft 4 kts 42°
2026-04-24 00:46 40.76866 -73.85973 18 ft 4 kts 42°
2026-04-24 00:46 40.76886 -73.85949 18 ft 4 kts 42°
2026-04-24 00:46 40.76902 -73.85930 18 ft 4 kts 44°
2026-04-24 00:47 40.76922 -73.85907 19 ft 4 kts 35°
2026-04-24 00:47 40.76928 -73.85902 18 ft 0 kts 33°
2026-04-24 00:50 40.76933 -73.85897 18 ft 3 kts 31°
2026-04-24 00:50 40.76965 -73.85882 18 ft 6 kts
2026-04-24 00:51 40.77007 -73.85885 19 ft 6 kts 345°
2026-04-24 00:51 40.77063 -73.85902 14 ft 11 kts 347°
2026-04-24 00:51 40.77136 -73.85926 10 ft 9 kts 353°
2026-04-24 00:51 40.77194 -73.85936 11 ft 8 kts 326°
2026-04-24 00:52 40.77229 -73.85991 10 ft 8 kts 303°
2026-04-24 00:52 40.77262 -73.86061 11 ft 9 kts 302°
2026-04-24 00:52 40.77296 -73.86132 11 ft 10 kts 302°
2026-04-24 00:52 40.77339 -73.86223 11 ft 13 kts 303°
2026-04-24 00:53 40.77394 -73.86339 10 ft 16 kts 302°
2026-04-24 00:53 40.77452 -73.86459 10 ft 15 kts 302°
2026-04-24 00:53 40.77508 -73.86577 10 ft 15 kts 302°
2026-04-24 00:53 40.77565 -73.86696 10 ft 15 kts 302°
2026-04-24 00:54 40.77620 -73.86812 10 ft 15 kts 302°
2026-04-24 00:54 40.77675 -73.86926 10 ft 14 kts 302°
2026-04-24 00:54 40.77727 -73.87036 11 ft 14 kts 302°
2026-04-24 00:54 40.77776 -73.87139 12 ft 13 kts 302°
2026-04-24 00:55 40.77820 -73.87244 12 ft 13 kts 292°
2026-04-24 00:55 40.77834 -73.87362 12 ft 14 kts 266°
2026-04-24 00:55 40.77809 -73.87480 13 ft 13 kts 242°
2026-04-24 00:55 40.77753 -73.87569 19 ft 12 kts 219°
2026-04-24 00:56 40.77688 -73.87626 20 ft 11 kts 211°
2026-04-24 00:56 40.77615 -73.87688 20 ft 14 kts 213°
2026-04-24 00:56 40.77527 -73.87760 19 ft 16 kts 212°
2026-04-24 00:56 40.77427 -73.87843 19 ft 18 kts 212°
2026-04-24 00:57 40.77322 -73.87930 18 ft 18 kts 212°
2026-04-24 00:57 40.77216 -73.88017 19 ft 18 kts 211°
2026-04-24 00:57 40.77042 -73.88163 23 ft 11 kts 217°
2026-04-24 00:58 40.76998 -73.88214 24 ft 7 kts 224°
2026-04-24 00:58 40.76976 -73.88242 27 ft 3 kts 224°
2026-04-24 00:58 40.76969 -73.88252 25 ft 0 kts 224°
2026-04-24 01:03 40.76966 -73.88256 25 ft 1 kts 224°
2026-04-24 01:04 40.76953 -73.88273 28 ft 4 kts 225°
2026-04-24 01:04 40.76934 -73.88308 27 ft 6 kts 242°
2026-04-24 01:04 40.76922 -73.88362 28 ft 6 kts 280°
2026-04-24 01:04 40.76944 -73.88385 29 ft 4 kts
2026-04-24 01:05 40.77006 -73.88341 27 ft 28 kts 32°
2026-04-24 01:05 40.77384 -73.88029 20 ft 99 kts 32°
2026-04-24 01:05 40.78143 -73.87410 20 ft 151 kts 30°
2026-04-24 01:05 40.79053 -73.86590 437 ft 167 kts 34°
2026-04-24 01:06 40.80024 -73.85611 902 ft 188 kts 34°
2026-04-24 01:06 40.81110 -73.84521 1478 ft 202 kts 31°
2026-04-24 01:06 40.82209 -73.83410 2398 ft 208 kts 31°
2026-04-24 01:06 40.83436 -73.82352 3304 ft 205 kts 13°
2026-04-24 01:07 40.84796 -73.82320 4129 ft 204 kts 337°
2026-04-24 01:07 40.85983 -73.83421 4760 ft 218 kts 306°
2026-04-24 01:07 40.86796 -73.85186 5466 ft 230 kts 301°
2026-04-24 01:07 40.87533 -73.87059 6445 ft 229 kts 299°
2026-04-24 01:08 40.88216 -73.88955 7367 ft 230 kts 294°
2026-04-24 01:08 40.88336 -73.91074 8324 ft 241 kts 262°
2026-04-24 01:08 40.87474 -73.93099 9007 ft 275 kts 234°
2026-04-24 01:08 40.85786 -73.94530 9748 ft 300 kts 212°
2026-04-24 01:09 40.83848 -73.95559 10416 ft 310 kts 209°
2026-04-24 01:09 40.81771 -73.96568 10920 ft 324 kts 208°
2026-04-24 01:09 40.79622 -73.97566 11544 ft 334 kts 207°
2026-04-24 01:09 40.77354 -73.98605 11848 ft 356 kts 207°
2026-04-24 01:10 40.74940 -73.99720 11980 ft 379 kts 207°
2026-04-24 01:10 40.72378 -74.00920 12021 ft 397 kts 207°
2026-04-24 01:10 40.69760 -74.02169 12036 ft 403 kts 207°
2026-04-24 01:10 40.67110 -74.03443 12050 ft 408 kts 207°
2026-04-24 01:11 40.64434 -74.04738 12038 ft 411 kts 207°
2026-04-24 01:11 40.61714 -74.05957 12098 ft 416 kts 202°
2026-04-24 01:11 40.58954 -74.06889 12576 ft 407 kts 199°
2026-04-24 01:11 40.56234 -74.07686 13228 ft 394 kts 199°
2026-04-24 01:12 40.53596 -74.08437 13852 ft 382 kts 199°
2026-04-24 01:12 40.51021 -74.09214 14193 ft 378 kts 200°
2026-04-24 01:12 40.48467 -74.10041 14412 ft 378 kts 201°
2026-04-24 01:12 40.45898 -74.10863 14628 ft 379 kts 201°
2026-04-24 01:13 40.43369 -74.11670 14852 ft 378 kts 200°
2026-04-24 01:13 40.40808 -74.12478 15070 ft 378 kts 201°
2026-04-24 01:13 40.38245 -74.13290 15288 ft 379 kts 201°
2026-04-24 01:13 40.35679 -74.14102 15536 ft 380 kts 201°
2026-04-24 01:14 40.33111 -74.14911 16189 ft 379 kts 201°
2026-04-24 01:14 40.30544 -74.15720 16880 ft 381 kts 201°
2026-04-24 01:14 40.27955 -74.16537 17560 ft 383 kts 201°
2026-04-24 01:14 40.25354 -74.17360 18213 ft 385 kts 202°
2026-04-24 01:15 40.22729 -74.18190 18699 ft 389 kts 201°
2026-04-24 01:15 40.20088 -74.19018 19208 ft 392 kts 201°
2026-04-24 01:15 40.17427 -74.19857 19693 ft 395 kts 201°
2026-04-24 01:15 40.14743 -74.20702 20186 ft 398 kts 201°
2026-04-24 01:16 40.12036 -74.21551 20676 ft 401 kts 201°
2026-04-24 01:16 40.09308 -74.22409 21132 ft 404 kts 201°
2026-04-24 01:16 40.06563 -74.23273 21601 ft 408 kts 201°
2026-04-24 01:16 40.03796 -74.24139 22060 ft 410 kts 201°
2026-04-24 01:17 40.01138 -74.25248 22492 ft 400 kts 214°
2026-04-24 01:17 39.98720 -74.26983 23073 ft 394 kts 219°
2026-04-24 01:17 39.96448 -74.28955 23531 ft 390 kts 225°
2026-04-24 01:17 39.94287 -74.31091 23936 ft 389 kts 226°
2026-04-24 01:18 39.92140 -74.33257 24295 ft 392 kts 226°
2026-04-24 01:18 39.89963 -74.35414 24710 ft 393 kts 225°
2026-04-24 01:18 39.87760 -74.37522 25079 ft 394 kts 224°
2026-04-24 01:18 39.85536 -74.39642 25420 ft 397 kts 224°
2026-04-24 01:19 39.83312 -74.41762 25801 ft 396 kts 224°
2026-04-24 01:19 39.81150 -74.43914 26107 ft 395 kts 228°
2026-04-24 01:19 39.79136 -74.46362 26560 ft 388 kts 233°
2026-04-24 01:19 39.77307 -74.48874 26918 ft 386 kts 235°
2026-04-24 01:20 39.75479 -74.51434 27282 ft 387 kts 235°
2026-04-24 01:20 39.73621 -74.53995 27625 ft 389 kts 234°
2026-04-24 01:20 39.71726 -74.56517 27920 ft 391 kts 233°
2026-04-24 01:20 39.69810 -74.59052 28066 ft 397 kts 233°
2026-04-24 01:21 39.67863 -74.61629 28181 ft 403 kts 233°
2026-04-24 01:21 39.65907 -74.64215 28528 ft 402 kts 233°
2026-04-24 01:21 39.63946 -74.66804 28891 ft 401 kts 233°
2026-04-24 01:21 39.62649 -74.68511 29117 ft 401 kts 233°
2026-04-24 01:22 39.60059 -74.71926 29596 ft 400 kts 233°
2026-04-24 01:22 39.58107 -74.74495 29938 ft 400 kts 233°
2026-04-24 01:22 39.56161 -74.77056 30222 ft 399 kts 233°
2026-04-24 01:22 39.54214 -74.79620 30460 ft 399 kts 233°
2026-04-24 01:23 39.52258 -74.82183 30711 ft 399 kts 233°
2026-04-24 01:23 39.50942 -74.83912 30879 ft 399 kts 233°
2026-04-24 01:23 39.48992 -74.86475 31108 ft 399 kts 233°
2026-04-24 01:23 39.47040 -74.89035 31321 ft 400 kts 233°
2026-04-24 01:24 39.45085 -74.91590 31555 ft 399 kts 233°
2026-04-24 01:24 39.43133 -74.94146 31787 ft 399 kts 233°
2026-04-24 01:24 39.41179 -74.96704 32006 ft 400 kts 234°
2026-04-24 01:24 39.39248 -74.99225 32214 ft 400 kts 234°
2026-04-24 01:25 39.37287 -75.01786 32425 ft 400 kts 234°
2026-04-24 01:25 39.35332 -75.04341 32642 ft 400 kts 234°
2026-04-24 01:25 39.33373 -75.06902 32822 ft 400 kts 233°
2026-04-24 01:25 39.31412 -75.09457 32982 ft 401 kts 233°
2026-04-24 01:26 39.29418 -75.11956 33389 ft 397 kts 232°
2026-04-24 01:26 39.27383 -75.14367 33600 ft 397 kts 230°
2026-04-24 01:26 39.25304 -75.16727 33782 ft 398 kts 230°
2026-04-24 01:26 39.23250 -75.19057 33954 ft 398 kts 230°
2026-04-24 01:27 39.21195 -75.21456 34016 ft 400 kts 231°
2026-04-24 01:27 39.17044 -75.26355 34023 ft 409 kts 231°
2026-04-24 01:28 39.12798 -75.31334 34028 ft 415 kts 230°
2026-04-24 01:28 39.08471 -75.36352 34020 ft 420 kts 230°
2026-04-24 01:29 39.04067 -75.41363 34015 ft 430 kts 223°
2026-04-24 01:29 39.01367 -75.43173 34030 ft 446 kts 207°
2026-04-24 01:29 38.98397 -75.44434 34039 ft 452 kts 202°
2026-04-24 01:30 38.92136 -75.45741 34045 ft 466 kts 189°
2026-04-24 01:30 38.85632 -75.46336 34054 ft 469 kts 191°
2026-04-24 01:31 38.79115 -75.47236 34060 ft 472 kts 192°
2026-04-24 01:31 38.72558 -75.48135 34057 ft 476 kts 192°
2026-04-24 01:32 38.65943 -75.49033 34046 ft 479 kts 192°
2026-04-24 01:32 38.59297 -75.49933 34053 ft 482 kts 191°
2026-04-24 01:33 38.52601 -75.50840 34056 ft 484 kts 191°
2026-04-24 01:33 38.45883 -75.51748 34061 ft 487 kts 192°
2026-04-24 01:34 38.39136 -75.52659 34057 ft 489 kts 191°
2026-04-24 01:34 38.32693 -75.54798 34065 ft 472 kts 212°
2026-04-24 01:35 38.27113 -75.59065 34073 ft 465 kts 222°
2026-04-24 01:35 38.21924 -75.63889 34053 ft 466 kts 221°
2026-04-24 01:36 38.16553 -75.68591 34058 ft 469 kts 220°
2026-04-24 01:36 38.11153 -75.73259 34057 ft 470 kts 220°
2026-04-24 01:37 38.05751 -75.77946 34060 ft 470 kts 220°
2026-04-24 01:37 38.00334 -75.82628 34048 ft 471 kts 220°
2026-04-24 01:38 37.94955 -75.87272 34062 ft 471 kts 220°
2026-04-24 01:38 37.89540 -75.91936 34067 ft 471 kts 219°
2026-04-24 01:39 37.84114 -75.96605 34067 ft 471 kts 219°
2026-04-24 01:39 37.78687 -76.01264 34062 ft 471 kts 219°
2026-04-24 01:40 37.73255 -76.05919 34067 ft 471 kts 219°
2026-04-24 01:40 37.67849 -76.10545 34067 ft 471 kts 219°
2026-04-24 01:41 37.62421 -76.15193 34048 ft 471 kts 219°
2026-04-24 01:41 37.56581 -76.19107 34068 ft 480 kts 207°
2026-04-24 01:42 37.50352 -76.22198 34066 ft 481 kts 206°
2026-04-24 01:42 37.44231 -76.25471 34070 ft 481 kts 208°
2026-04-24 01:43 37.38077 -76.28798 34061 ft 481 kts 207°
2026-04-24 01:43 37.31914 -76.32115 34069 ft 482 kts 207°
2026-04-24 01:44 37.25747 -76.35437 34069 ft 482 kts 207°
2026-04-24 01:44 37.19582 -76.38750 34068 ft 482 kts 207°
2026-04-24 01:45 37.13405 -76.42060 34064 ft 482 kts 207°
2026-04-24 01:45 37.07238 -76.45360 34068 ft 482 kts 207°
2026-04-24 01:46 37.01066 -76.48657 34068 ft 482 kts 207°
2026-04-24 01:46 36.94928 -76.51940 34073 ft 482 kts 207°
2026-04-24 01:47 36.88751 -76.55224 34082 ft 483 kts 207°
2026-04-24 01:47 36.82563 -76.58506 34084 ft 483 kts 207°
2026-04-24 01:48 36.76372 -76.61790 34084 ft 484 kts 207°
2026-04-24 01:48 36.70172 -76.65074 34082 ft 484 kts 207°
2026-04-24 01:49 36.63960 -76.68356 34086 ft 484 kts 207°
2026-04-24 01:49 36.57768 -76.71630 34084 ft 484 kts 207°
2026-04-24 01:50 36.51551 -76.74902 34060 ft 484 kts 207°
2026-04-24 01:50 36.45351 -76.78165 34053 ft 484 kts 206°
2026-04-24 01:51 36.39187 -76.81396 34054 ft 483 kts 207°
2026-04-24 01:51 36.32994 -76.84645 34048 ft 483 kts 206°
2026-04-24 01:52 36.26794 -76.87897 34055 ft 483 kts 206°
2026-04-24 01:52 36.20602 -76.91125 34059 ft 483 kts 206°
2026-04-24 01:53 36.14404 -76.94352 34062 ft 483 kts 206°
2026-04-24 01:53 36.08215 -76.97573 34061 ft 483 kts 206°
2026-04-24 01:54 36.02022 -77.00795 34066 ft 483 kts 206°
2026-04-24 01:54 35.95826 -77.04002 34079 ft 482 kts 206°
2026-04-24 01:55 35.89949 -77.07824 34092 ft 475 kts 219°
2026-04-24 01:55 35.84872 -77.12941 34080 ft 472 kts 224°
2026-04-24 01:56 35.79813 -77.18122 34068 ft 473 kts 221°
2026-04-24 01:56 35.74679 -77.23121 34066 ft 473 kts 221°
2026-04-24 01:57 35.69529 -77.28180 34075 ft 473 kts 221°
2026-04-24 01:57 35.64367 -77.33229 34078 ft 474 kts 221°
2026-04-24 01:58 35.59206 -77.38273 34079 ft 474 kts 221°
2026-04-24 01:58 35.54038 -77.43312 34074 ft 474 kts 221°
2026-04-24 01:59 35.48866 -77.48347 34080 ft 474 kts 221°
2026-04-24 01:59 35.43688 -77.53380 34104 ft 474 kts 221°
2026-04-24 02:00 35.38533 -77.58380 34107 ft 474 kts 221°
2026-04-24 02:00 35.33355 -77.63398 34104 ft 475 kts 221°
2026-04-24 02:01 35.28170 -77.68413 34105 ft 475 kts 221°
2026-04-24 02:01 35.22977 -77.73428 34106 ft 475 kts 221°
2026-04-24 02:02 35.17816 -77.78400 34100 ft 476 kts 221°
2026-04-24 02:02 35.12607 -77.83413 34108 ft 476 kts 221°
2026-04-24 02:03 35.04795 -77.90911 34123 ft 476 kts 221°
2026-04-24 02:03 34.99583 -77.95908 34121 ft 476 kts 220°
2026-04-24 02:04 34.94373 -78.00891 34126 ft 476 kts 220°
2026-04-24 02:04 34.89157 -78.05881 34114 ft 476 kts 220°
2026-04-24 02:05 34.83941 -78.10855 34119 ft 476 kts 220°
2026-04-24 02:05 34.78760 -78.15809 34117 ft 476 kts 220°
2026-04-24 02:06 34.73546 -78.20794 34115 ft 476 kts 220°
2026-04-24 02:06 34.68324 -78.25773 34107 ft 476 kts 220°
2026-04-24 02:07 34.63137 -78.30714 34111 ft 476 kts 220°
2026-04-24 02:07 34.57918 -78.35675 34120 ft 476 kts 220°
2026-04-24 02:08 34.52694 -78.40635 34124 ft 476 kts 220°
2026-04-24 02:08 34.47474 -78.45584 34125 ft 476 kts 220°
2026-04-24 02:09 34.42244 -78.50532 34123 ft 476 kts 220°
2026-04-24 02:09 34.37019 -78.55469 34069 ft 476 kts 220°
2026-04-24 02:10 34.34413 -78.57933 33799 ft 472 kts 220°
2026-04-24 02:10 34.32718 -78.59560 33623 ft 467 kts 222°
2026-04-24 02:10 34.30304 -78.62166 33237 ft 462 kts 226°
2026-04-24 02:10 34.28062 -78.64920 32727 ft 456 kts 228°
2026-04-24 02:11 34.25183 -78.68561 32080 ft 445 kts 228°
2026-04-24 02:11 34.23765 -78.70311 31741 ft 438 kts 227°
2026-04-24 02:11 34.21620 -78.72882 31234 ft 429 kts 226°
2026-04-24 02:11 34.19525 -78.75388 30693 ft 420 kts 226°
2026-04-24 02:12 34.17469 -78.77849 30206 ft 412 kts 226°
2026-04-24 02:12 34.15446 -78.80270 29657 ft 406 kts 226°
2026-04-24 02:12 34.13460 -78.82645 29101 ft 399 kts 226°
2026-04-24 02:12 34.11501 -78.84985 28567 ft 393 kts 226°
2026-04-24 02:13 34.09567 -78.87292 28040 ft 388 kts 226°
2026-04-24 02:13 34.07658 -78.89568 27521 ft 383 kts 226°
2026-04-24 02:13 34.05770 -78.91816 27011 ft 379 kts 226°
2026-04-24 02:13 34.03902 -78.94042 26518 ft 375 kts 226°
2026-04-24 02:14 34.02056 -78.96238 26036 ft 371 kts 226°
2026-04-24 02:14 34.00225 -78.98417 25558 ft 368 kts 226°
2026-04-24 02:14 33.98413 -79.00574 25090 ft 365 kts 226°
2026-04-24 02:14 33.96603 -79.02709 24624 ft 362 kts 226°
2026-04-24 02:15 33.94813 -79.04827 24168 ft 359 kts 226°
2026-04-24 02:15 33.93059 -79.06897 23728 ft 357 kts 226°
2026-04-24 02:15 33.91283 -79.08984 23207 ft 355 kts 226°
2026-04-24 02:15 33.89525 -79.11056 22683 ft 353 kts 226°
2026-04-24 02:16 33.87775 -79.13124 22167 ft 351 kts 226°
2026-04-24 02:16 33.86039 -79.15185 21660 ft 350 kts 226°
2026-04-24 02:16 33.84310 -79.17234 21164 ft 348 kts 226°
2026-04-24 02:16 33.82589 -79.19271 20673 ft 346 kts 226°
2026-04-24 02:17 33.80874 -79.21299 20192 ft 345 kts 226°
2026-04-24 02:17 33.79165 -79.23309 19718 ft 343 kts 224°
2026-04-24 02:17 33.77304 -79.25100 19248 ft 343 kts 216°
2026-04-24 02:17 33.75283 -79.26633 18784 ft 342 kts 212°
2026-04-24 02:18 33.73240 -79.28080 18322 ft 340 kts 212°
2026-04-24 02:18 33.71234 -79.29506 17798 ft 339 kts 212°
2026-04-24 02:18 33.69216 -79.30964 17279 ft 337 kts 213°
2026-04-24 02:18 33.67229 -79.32452 16756 ft 335 kts 213°
2026-04-24 02:19 33.65261 -79.33932 16266 ft 333 kts 213°
2026-04-24 02:19 33.63298 -79.35412 15777 ft 332 kts 212°
2026-04-24 02:19 33.61339 -79.36891 15291 ft 331 kts 212°
2026-04-24 02:19 33.59392 -79.38355 14814 ft 330 kts 212°
2026-04-24 02:20 33.57453 -79.39815 14344 ft 329 kts 212°
2026-04-24 02:20 33.55539 -79.41258 13888 ft 327 kts 211°
2026-04-24 02:20 33.53613 -79.42704 13367 ft 326 kts 211°
2026-04-24 02:20 33.51692 -79.44147 12849 ft 325 kts 212°
2026-04-24 02:21 33.49773 -79.45578 12380 ft 322 kts 211°
2026-04-24 02:21 33.47896 -79.46986 12153 ft 313 kts 212°
2026-04-24 02:21 33.46083 -79.48353 12051 ft 300 kts 212°
2026-04-24 02:21 33.44353 -79.49654 12052 ft 290 kts 212°
2026-04-24 02:22 33.42646 -79.50936 11923 ft 295 kts 212°
2026-04-24 02:22 33.40899 -79.52249 11795 ft 297 kts 212°
2026-04-24 02:22 33.39135 -79.53571 11671 ft 299 kts 212°
2026-04-24 02:22 33.37373 -79.54897 11488 ft 299 kts 212°
2026-04-24 02:23 33.35621 -79.56205 11267 ft 292 kts 212°
2026-04-24 02:23 33.33930 -79.57481 11053 ft 286 kts 213°
2026-04-24 02:23 33.32254 -79.58758 10751 ft 284 kts 213°
2026-04-24 02:23 33.30589 -79.60023 10456 ft 282 kts 214°
2026-04-24 02:24 33.28944 -79.61285 10162 ft 280 kts 214°
2026-04-24 02:24 33.27332 -79.62528 9876 ft 277 kts 214°
2026-04-24 02:24 33.25723 -79.63768 9609 ft 273 kts 214°
2026-04-24 02:24 33.24140 -79.64980 9412 ft 267 kts 214°
2026-04-24 02:25 33.22593 -79.66168 9218 ft 261 kts 214°
2026-04-24 02:25 33.21117 -79.67354 9046 ft 250 kts 224°
2026-04-24 02:25 33.20075 -79.68962 8789 ft 242 kts 241°
2026-04-24 02:25 33.19255 -79.70707 8472 ft 240 kts 245°
2026-04-24 02:26 33.18494 -79.72475 8151 ft 239 kts 245°
2026-04-24 02:26 33.17721 -79.74231 7825 ft 238 kts 243°
2026-04-24 02:26 33.16912 -79.75949 7499 ft 237 kts 242°
2026-04-24 02:26 33.16091 -79.77643 7185 ft 235 kts 243°
2026-04-24 02:27 33.15263 -79.79329 6843 ft 235 kts 243°
2026-04-24 02:27 33.14459 -79.81029 6491 ft 235 kts 243°
2026-04-24 02:27 33.13653 -79.82730 6116 ft 235 kts 242°
2026-04-24 02:27 33.12857 -79.84395 5750 ft 234 kts 242°
2026-04-24 02:28 33.12052 -79.86075 5375 ft 232 kts 242°
2026-04-24 02:28 33.11252 -79.87745 5006 ft 230 kts 241°
2026-04-24 02:28 33.10457 -79.89397 4627 ft 229 kts 241°
2026-04-24 02:28 33.09675 -79.91038 4288 ft 226 kts 241°
2026-04-24 02:29 33.08911 -79.92628 4115 ft 215 kts 240°
2026-04-24 02:29 33.08303 -79.94191 4015 ft 201 kts 256°
2026-04-24 02:29 33.07766 -79.95589 4107 ft 175 kts 229°
2026-04-24 02:29 33.06718 -79.96245 3777 ft 176 kts 191°
2026-04-24 02:30 33.05528 -79.96435 3582 ft 167 kts 189°
2026-04-24 02:30 33.04393 -79.96634 3482 ft 171 kts 191°
2026-04-24 02:30 33.03182 -79.96885 3401 ft 180 kts 195°
2026-04-24 02:30 33.01977 -79.97261 3335 ft 179 kts 200°
2026-04-24 02:31 33.00849 -79.97843 3101 ft 171 kts 205°
2026-04-24 02:31 32.99859 -79.98402 2921 ft 145 kts 206°
2026-04-24 02:31 32.98976 -79.98912 2498 ft 140 kts 205°
2026-04-24 02:31 32.98105 -79.99389 2112 ft 138 kts 204°
2026-04-24 02:32 32.97233 -79.99850 1865 ft 138 kts 203°
2026-04-24 02:32 32.96361 -80.00302 1668 ft 133 kts 204°
2026-04-24 02:32 32.95525 -80.00760 1472 ft 134 kts 206°
2026-04-24 02:32 32.94680 -80.01215 1285 ft 132 kts 204°
2026-04-24 02:33 32.93837 -80.01667 1025 ft 132 kts 204°
2026-04-24 02:33 32.93014 -80.02123 780 ft 131 kts 205°
2026-04-24 02:33 32.92171 -80.02574 565 ft 133 kts 204°
2026-04-24 02:33 32.91322 -80.03035 355 ft 135 kts 203°
2026-04-24 02:34 32.90438 -80.03510 141 ft 143 kts 204°
2026-04-24 02:34 32.89567 -80.03977 39 ft 123 kts 204°
2026-04-24 02:34 32.88968 -80.04299 37 ft 66 kts 205°
2026-04-24 02:34 32.88669 -80.04462 37 ft 38 kts 205°
2026-04-24 02:35 32.88521 -80.04513 38 ft 15 kts 160°
2026-04-24 02:35 32.88484 -80.04416 39 ft 14 kts 78°
2026-04-24 02:35 32.88534 -80.04318 39 ft 14 kts 50°
2026-04-24 02:35 32.88597 -80.04225 39 ft 15 kts 51°
2026-04-24 02:36 32.88657 -80.04133 39 ft 12 kts 52°
2026-04-24 02:36 32.88663 -80.04048 39 ft 11 kts 129°
2026-04-24 02:36 32.88627 -80.03976 39 ft 10 kts 86°
2026-04-24 02:36 32.88664 -80.03915 39 ft 9 kts 43°
2026-04-24 02:37 32.88709 -80.03856 39 ft 10 kts 52°
2026-04-24 02:37 32.88742 -80.03782 39 ft 10 kts 73°
2026-04-24 02:37 32.88752 -80.03706 39 ft 9 kts 88°
2026-04-24 02:37 32.88731 -80.03658 39 ft 7 kts 155°
2026-04-24 02:38 32.88686 -80.03636 39 ft 7 kts 140°
2026-04-24 02:38 32.88663 -80.03582 39 ft 8 kts 109°
2026-04-24 02:38 32.88641 -80.03523 39 ft 8 kts 126°
2026-04-24 02:38 32.88600 -80.03484 39 ft 7 kts 150°
2026-04-24 02:39 32.88562 -80.03487 39 ft 5 kts 232°
2026-04-24 02:39 32.88552 -80.03522 39 ft 3 kts 255°
2026-04-24 02:39 32.88549 -80.03534 39 ft 0 kts 256°